Presure
178 198 199 195 197 199 211 205 209 166 198 215 264 255 261 263 291 271 284 299 298 302 316 332 350 349 335 312 299 309 304 291 278 273 271 278 279 274 269 263 257 256 254 261
199 198 192 206 194 206 205 208 216 240 218 266 273 270 276 294 278 288 285 296 298 309 315 343 344 345 332 313 293 302 293 285 275 267 268 271 272 268 267 266 263 263 268 267
198 207 196 198 195 230 214 256 250 245 279 279 277 256 269 285 287 292 302 296 304 303 349 345 338 344 330 315 294 294 291 280 232 266 267 268 265 264 261 259 255 253 254 253
197 181 208 202 199 219 218 255 271 282 284 269 286 277 284 281 290 306 303 307 307 346 350 353 335 342 330 315 298 285 288 278 270 267 270 266 265 261 254 247 249 250 246 250
181 204 197 202 217 208 276 291 303 295 296 293 280 286 280 287 308 310 308 309 320 356 343 344 352 344 329 316 296 284 282 281 276 277 267 263 260 253 247 247 241 242 243 277
202 208 164 206 244 210 275 296 306 300 296 286 290 287 285 308 309 306 307 316 360 354 331 337 348 353 325 314 293 284 274 278 278 271 263 259 252 247 242 240 236 288 280 265
196 194 231 294 314 265 311 293 245 307 293 294 291 291 308 301 317 306 303 354 359 341 319 331 349 351 326 315 295 288 276 273 271 265 257 252 249 243 239 236 228 273 262 261
204 214 336 345 261 305 259 254 307 297 299 291 295 299 84 304 306 296 356 358 336 318 327 331 340 342 328 312 303 288 276 270 266 257 251 245 244 241 237 247 274 260 267 275
303 253 300 264 287 256 259 308 300 303 300 304 301 307 301 298 307 356 360 335 316 341 335 341 332 332 352 313 303 281 274 272 263 253 246 241 240 238 234 274 263 263 251 250
335 282 276 280 267 256 244 298 257 310 299 256 262 303 301 290 342 361 331 313 332 332 325 333 326 326 356 315 300 280 271 270 257 252 244 240 239 238 274 256 258 247 255 248
267 278 254 272 256 247 251 249 243 255 260 256 277 282 294 303 365 335 313 329 324 302 322 325 332 328 357 314 294 280 271 265 237 247 247 241 235 234 262 262 253 257 252 241
255 258 259 257 240 251 260 252 249 274 261 311 302 286 297 348 343 323 302 319 374 373 352 319 327 331 339 318 292 278 275 260 180 246 241 237 230 265 263 255 253 246 244 248
263 264 253 252 249 249 254 257 256 263 300 303 290 300 324 349 325 311 303 311 364 363 367 388 326 329 322 334 296 272 272 258 208 241 240 234 228 275 266 253 249 242 249 254
245 250 252 244 245 247 256 268 289 297 288 291 291 316 355 327 312 304 364 361 355 356 360 375 326 311 327 338 288 267 266 253 247 241 240 231 229 272 261 256 248 244 250 246
260 256 253 245 239 257 263 304 307 302 292 288 320 354 339 317 301 347 354 354 363 394 374 367 328 309 334 327 282 266 265 251 247 240 237 228 236 255 253 260 246 250 250 246
257 255 242 245 270 269 263 262 299 284 297 324 344 346 320 302 318 352 375 387 372 373 373 383 350 310 332 322 282 269 263 251 246 239 236 232 224 264 260 252 253 259 238 243
258 258 277 286 318 307 264 289 287 299 335 343 346 324 302 313 350 367 374 361 392 425 381 392 374 306 328 341 286 272 262 249 248 240 234 233 224 232 251 258 246 237 237 245
291 296 294 302 307 301 288 289 297 338 335 340 326 301 309 299 342 372 361 346 392 385 358 381 366 303 322 339 287 273 262 248 250 240 239 236 226 227 231 241 241 242 245 220
314 274 265 263 309 300 289 293 328 317 332 324 309 285 299 340 382 365 350 334 376 356 361 363 356 298 316 333 289 272 207 251 180 240 239 234 229 224 236 226 232 215 218 231
269 267 288 314 305 287 292 311 331 330 320 311 296 306 293 330 375 359 345 328 345 355 362 353 349 298 309 330 289 271 267 253 245 239 239 238 231 225 219 237 227 231 237 213
303 294 322 304 286 290 308 328 318 321 309 300 277 299 336 321 355 362 348 330 325 352 357 346 342 311 304 327 290 274 271 256 243 241 237 237 233 228 228 216 233 234 226 238
324 316 299 290 302 326 331 323 327 306 297 284 303 279 325 326 344 345 357 341 316 339 341 337 334 334 301 321 293 274 268 262 247 242 237 237 236 231 228 227 216 217 227 223
306 298 301 316 324 322 306 290 294 294 281 306 323 327 317 349 353 354 351 358 325 321 344 335 337 341 296 306 298 276 269 261 255 243 240 236 235 235 233 228 230 230 218 220
299 304 317 313 327 299 285 295 290 282 302 338 328 318 316 358 350 348 358 354 365 317 330 346 338 356 290 290 307 282 271 266 254 249 244 238 234 232 230 234 229 228 226 222
326 340 324 312 286 276 300 288 284 296 293 327 316 312 348 340 335 339 341 352 377 326 319 334 356 349 306 289 320 287 275 268 263 253 247 242 239 236 232 230 235 233 229 227
324 336 294 277 309 293 283 288 309 352 329 316 310 309 335 331 331 337 357 357 372 352 317 327 337 335 339 289 288 296 279 275 265 259 252 245 241 240 238 236 234 232 231 230
293 279 289 301 285 277 305 379 359 331 318 306 306 296 323 320 326 334 343 337 350 335 306 318 325 335 334 319 273 314 278 278 271 263 257 251 245 239 237 236 235 235 235 235
Wind_Speed
83 113 114 101 113 100 119 105 109 52 79 102 87 85 86 84 80 77 73 66 64 63 60 53 43 35 31 34 34 36 38 40 42 42 41 41 43 47 52 55 56 59 62 63
113 115 97 127 93 120 107 121 121 107 102 91 87 87 90 75 75 73 72 66 66 63 58 48 39 33 32 34 36 36 40 41 41 42 40 41 42 44 48 51 53 54 57 58
111 132 110 123 111 129 126 110 107 105 90 87 87 88 80 75 72 69 64 64 64 61 54 45 37 33 32 34 37 36 40 41 38 41 40 40 41 43 42 42 45 47 49 50
109 51 136 129 120 130 126 109 102 92 88 90 78 77 76 75 71 64 62 63 64 61 50 43 37 32 32 34 37 37 37 40 42 41 38 38 39 40 39 40 42 43 44 49
57 130 114 128 131 122 104 91 84 83 78 75 76 72 75 74 67 61 61 61 62 53 46 41 36 31 32 34 37 37 34 39 41 37 36 37 37 37 37 38 37 39 43 28
131 135 67 128 121 121 93 82 77 76 74 74 71 70 72 68 66 65 66 64 57 44 43 38 35 31 31 34 40 38 36 36 36 35 36 36 35 34 34 34 35 23 23 27
126 112 127 100 81 94 77 80 83 72 72 71 70 70 66 64 64 65 65 63 52 40 40 37 31 30 29 33 39 39 38 37 36 36 36 35 34 33 32 32 35 21 25 21
131 135 87 74 95 76 87 86 73 74 72 70 67 68 23 65 65 65 65 55 46 37 39 33 27 27 29 34 38 41 39 37 37 37 37 34 31 29 30 28 24 24 14 17
108 112 90 96 82 84 83 71 73 72 72 68 67 63 63 65 66 67 56 46 40 37 34 29 23 25 28 34 39 42 41 39 40 38 37 32 28 26 28 24 19 19 20 19
85 92 92 83 82 80 81 71 76 70 67 69 67 61 63 65 70 56 48 42 38 33 30 25 21 25 28 35 41 43 41 42 42 39 36 30 26 24 24 21 22 24 22 22
93 87 87 82 80 80 79 77 75 74 71 71 65 66 65 64 58 49 44 43 34 30 27 22 21 24 28 36 43 44 42 44 37 37 34 28 25 23 22 24 25 25 24 24
89 87 84 80 80 79 76 76 74 69 72 63 62 66 65 66 53 46 41 41 32 31 25 23 23 25 31 37 44 44 44 43 25 36 32 27 25 25 24 22 25 27 26 22
86 82 82 81 80 78 75 75 75 72 63 59 65 65 68 56 50 45 41 40 29 28 25 21 26 27 33 39 47 42 46 44 31 36 32 27 24 31 31 27 29 27 23 16
85 84 81 80 79 78 74 73 67 65 66 63 64 66 56 51 49 45 39 34 32 29 27 22 30 32 35 42 48 42 48 46 42 37 33 29 26 27 28 33 28 25 21 15
83 81 80 79 80 75 72 60 60 60 64 66 66 60 51 50 47 44 40 38 34 28 28 27 34 38 37 45 48 43 49 46 43 38 34 31 25 24 24 34 24 26 21 15
81 80 80 80 72 70 72 72 60 68 64 66 61 54 52 49 51 44 38 31 28 31 31 28 33 42 41 48 50 47 51 47 45 40 36 32 30 28 29 29 27 25 18 16
78 77 71 68 55 58 71 62 65 63 67 59 53 51 51 54 47 41 31 27 28 15 22 25 30 44 44 47 54 51 53 49 47 42 39 36 33 28 28 28 26 22 19 20
68 66 64 60 59 59 64 64 63 64 59 54 52 49 52 51 47 32 25 24 18 9 19 23 30 46 47 49 58 55 55 51 50 46 43 39 36 33 30 28 26 25 26 23
60 67 68 69 57 57 61 62 63 59 57 54 53 50 52 45 29 25 20 20 14 13 17 24 31 48 50 52 62 56 40 55 31 49 45 42 39 37 32 31 28 30 27 25
67 68 62 55 53 60 60 63 56 52 53 53 51 53 52 45 28 23 18 18 16 14 19 27 32 50 52 54 64 60 62 59 53 51 48 46 42 40 38 35 33 32 32 31
57 61 51 53 57 58 59 56 52 49 51 52 50 53 44 44 32 22 19 16 14 13 17 26 31 47 53 55 67 63 64 62 56 55 51 49 47 43 41 40 38 37 35 35
54 52 53 55 57 59 53 50 45 49 50 51 53 51 42 43 34 28 20 19 18 13 19 26 32 41 55 55 68 66 64 64 60 58 53 52 50 48 46 46 43 40 38 38
52 53 55 59 54 49 48 49 48 49 48 51 42 39 41 36 29 24 22 18 21 16 18 26 30 34 57 57 68 69 67 64 65 61 58 54 53 51 50 47 46 45 43 42
54 55 58 52 49 46 48 46 48 48 50 34 35 37 38 24 20 17 16 15 18 22 16 20 26 28 58 58 65 71 68 67 65 63 62 59 56 54 53 53 50 48 46 47
60 56 50 46 46 48 44 47 48 49 44 30 33 34 21 16 16 14 13 12 11 22 20 19 21 28 55 58 57 69 69 68 68 65 64 63 60 59 57 54 54 53 54 55
50 49 45 47 43 45 46 47 44 21 25 27 29 31 18 17 18 17 13 8 7 15 20 21 25 29 35 57 56 66 69 69 67 68 65 64 62 61 60 58 56 57 58 58
48 47 47 46 46 47 45 21 17 22 22 24 24 26 15 16 16 12 7 2 3 15 20 21 23 27 32 46 56 56 68 69 67 67 68 66 65 61 60 60 60 60 60 60
Wind_Direction
323 332 335 334 336 337 336 337 332 322 324 331 322 324 320 321 320 318 315 311 310 310 310 307 296 281 260 248 246 241 234 232 238 242 247 246 240 239 239 243 247 249 253 256
331 333 336 336 335 335 335 331 329 329 328 321 319 318 317 319 318 316 313 311 310 311 310 302 291 275 259 243 242 236 230 228 233 239 243 244 243 242 243 246 250 254 256 258
332 336 337 334 333 328 327 325 324 324 318 317 317 321 317 317 317 313 310 309 309 309 307 298 288 271 255 241 234 232 231 226 238 235 239 240 243 244 244 246 249 254 259 262
333 313 332 329 328 327 326 323 319 314 313 318 317 317 316 317 314 311 308 308 308 311 304 295 284 267 252 236 228 229 229 227 231 231 234 236 239 241 242 248 253 259 264 267
311 331 326 325 323 325 317 314 311 312 312 314 317 317 314 314 312 310 307 307 310 307 299 294 282 263 248 233 224 223 223 224 228 226 225 229 233 237 244 251 258 264 266 251
330 324 305 321 319 322 316 313 311 312 314 315 316 316 313 313 312 310 309 311 312 302 293 290 279 262 246 229 221 217 219 221 219 216 220 225 229 236 245 253 258 237 242 257
325 324 319 313 312 318 313 315 318 313 315 315 316 314 314 311 312 310 311 314 309 301 289 287 276 259 241 227 219 213 215 216 213 212 216 222 229 237 245 250 254 236 250 244
319 319 311 311 316 309 318 318 312 315 315 315 315 314 297 312 312 312 316 312 309 299 290 283 273 255 234 221 214 210 211 211 209 210 217 222 230 238 245 245 226 247 237 245
309 315 313 314 315 317 316 309 313 314 314 315 315 313 313 311 312 318 315 311 304 300 287 279 262 248 237 214 207 206 208 206 208 210 218 223 228 237 244 226 228 234 231 243
308 311 312 313 316 315 316 311 315 312 314 317 315 311 311 312 319 317 314 308 306 295 283 272 249 239 233 210 204 205 206 203 209 210 220 222 228 237 218 236 236 237 241 242
312 311 313 313 314 314 313 314 315 315 315 316 312 312 312 315 319 316 311 311 305 284 280 263 239 232 221 207 203 204 204 202 213 215 220 220 224 234 225 222 227 232 227 240
311 312 311 312 313 313 313 313 314 313 315 312 312 312 315 319 318 314 308 311 304 299 286 254 230 220 210 204 204 206 202 204 233 214 219 217 222 221 215 221 214 229 237 239
310 309 311 312 312 311 312 313 312 313 312 311 311 314 316 316 315 313 309 309 296 290 282 279 221 212 208 201 201 206 201 203 216 213 218 214 219 208 215 221 221 237 242 249
309 309 309 310 309 310 312 311 310 310 310 309 312 315 316 315 312 310 309 301 293 280 273 264 215 211 205 198 201 204 202 204 206 210 214 213 217 207 211 209 221 237 239 242
305 306 308 308 308 310 311 307 308 309 309 312 314 316 316 315 311 314 307 301 292 280 264 246 210 210 202 197 202 202 202 205 207 209 212 211 218 219 215 208 220 230 227 224
305 306 306 306 308 308 308 310 308 307 309 315 317 317 317 313 317 315 311 302 289 266 252 236 214 207 198 196 201 201 202 205 209 211 212 212 217 214 211 215 219 217 214 220
304 305 306 306 303 303 307 303 304 308 314 316 316 317 315 318 317 317 312 303 312 294 237 228 216 203 196 195 200 200 201 205 208 212 214 214 217 217 208 200 203 207 213 225
304 303 303 303 303 305 302 305 309 316 316 315 317 318 319 319 320 313 310 312 316 263 229 217 209 202 196 194 198 200 200 206 207 212 213 217 216 222 218 216 208 209 214 224
301 303 303 305 305 305 303 307 315 314 315 315 317 317 320 321 315 308 307 306 305 259 228 214 206 201 196 194 197 200 209 206 221 213 214 217 217 221 220 223 226 229 231 230
301 302 300 305 304 302 305 311 311 311 311 314 317 319 321 320 322 304 295 290 310 260 232 214 205 199 197 194 197 201 200 205 209 213 215 217 220 222 225 223 226 230 238 236
298 300 303 303 300 303 309 310 309 309 311 314 315 318 318 318 326 314 281 265 282 268 225 219 209 200 198 195 196 203 202 204 211 214 217 218 221 223 228 232 232 230 235 237
301 302 301 300 306 308 307 307 308 309 313 315 315 318 315 317 318 311 295 258 254 250 220 216 211 203 199 198 197 203 204 204 209 214 218 220 222 223 226 229 236 237 239 243
301 301 304 307 307 306 304 303 307 310 312 313 312 311 313 316 307 295 290 270 235 232 229 222 218 208 199 198 197 204 207 207 208 213 218 222 225 227 229 233 236 237 242 246
299 303 304 303 304 302 301 304 307 309 310 306 308 312 313 315 313 309 304 277 243 225 218 218 214 213 201 200 198 204 209 208 211 212 217 221 226 230 233 235 238 242 244 247
300 301 301 301 299 299 303 304 306 307 309 303 308 312 320 318 316 312 294 285 283 213 211 211 213 203 201 201 201 203 209 211 212 215 217 221 224 228 233 238 239 241 245 249
300 299 297 296 299 300 301 302 301 278 293 300 307 311 314 326 328 326 323 300 278 209 208 204 204 200 201 201 202 201 210 214 213 217 219 224 227 229 233 237 241 244 246 249
296 294 295 297 296 297 298 267 252 274 285 297 304 313 329 339 336 333 336 272 205 201 208 210 205 203 200 200 204 201 209 215 216 217 221 224 228 233 237 241 244 247 249 253